Time,TemperatureF,DewpointF,PressureIn,WindDirection,WindDirectionDegrees,WindSpeedMPH,WindSpeedGustMPH,Humidity,HourlyPrecipIn,Conditions,Clouds,dailyrainin,SoftwareType,DateUTC
2013-06-13 00:01:00,79.0,69.2,29.91,SSE,150,5.0,6.0,72,0.00,,---,0.00,VWS V14.00,2013-06-13 05:01:00,
2013-06-13 00:06:00,78.8,69.0,29.91,SSE,150,5.0,5.0,72,0.00,,---,0.00,VWS V14.00,2013-06-13 05:06:00,
2013-06-13 00:11:00,78.8,69.0,29.91,SSE,150,4.0,6.0,72,0.00,,---,0.00,VWS V14.00,2013-06-13 05:11:00,
2013-06-13 00:16:00,78.8,69.0,29.90,SSE,150,0.0,2.0,72,0.00,,---,0.00,VWS V14.00,2013-06-13 05:16:00,
2013-06-13 00:21:00,78.8,69.0,29.91,SSE,150,6.0,6.0,72,0.00,,---,0.00,VWS V14.00,2013-06-13 05:21:00,
2013-06-13 00:26:00,78.8,69.0,29.91,SSE,151,0.0,2.0,72,0.00,,---,0.00,VWS V14.00,2013-06-13 05:26:00,
2013-06-13 00:31:00,78.8,69.4,29.91,SSE,151,3.0,4.0,73,0.00,,---,0.00,VWS V14.00,2013-06-13 05:31:00,
2013-06-13 00:36:00,78.8,69.4,29.91,SSE,150,3.0,3.0,73,0.00,,---,0.00,VWS V14.00,2013-06-13 05:36:00,
2013-06-13 00:41:00,78.8,69.4,29.91,SSE,150,4.0,4.0,73,0.00,,---,0.00,VWS V14.00,2013-06-13 05:41:00,
2013-06-13 00:46:00,78.8,69.4,29.91,SSE,151,2.0,2.0,73,0.00,,---,0.00,VWS V14.00,2013-06-13 05:46:00,
2013-06-13 00:51:00,78.6,69.2,29.90,SSE,151,4.0,5.0,73,0.00,,---,0.00,VWS V14.00,2013-06-13 05:51:00,
2013-06-13 00:56:00,78.6,69.6,29.90,SSE,151,3.0,3.0,74,0.00,,---,0.00,VWS V14.00,2013-06-13 05:56:00,
2013-06-13 01:01:00,78.6,69.6,29.91,SSE,150,4.0,4.0,74,0.00,,---,0.00,VWS V14.00,2013-06-13 06:01:00,
2013-06-13 01:06:00,78.6,69.6,29.91,SSE,151,2.0,3.0,74,0.00,,---,0.00,VWS V14.00,2013-06-13 06:06:00,
2013-06-13 01:11:00,78.5,69.5,29.91,SSE,151,0.0,0.0,74,0.00,,---,0.00,VWS V14.00,2013-06-13 06:11:00,
2013-06-13 01:16:00,78.5,69.9,29.91,SSE,151,1.0,2.0,75,0.00,,---,0.00,VWS V14.00,2013-06-13 06:16:00,
2013-06-13 01:21:00,78.5,69.9,29.92,SSE,151,3.0,3.0,75,0.00,,---,0.00,VWS V14.00,2013-06-13 06:21:00,
2013-06-13 01:26:00,78.5,69.9,29.91,SSE,151,3.0,3.0,75,0.00,,---,0.00,VWS V14.00,2013-06-13 06:26:00,
2013-06-13 01:31:00,78.3,69.7,29.92,SSE,151,2.0,3.0,75,0.00,,---,0.00,VWS V14.00,2013-06-13 06:31:00,
2013-06-13 01:36:00,78.3,69.7,29.92,SSE,151,0.0,0.0,75,0.00,,---,0.00,VWS V14.00,2013-06-13 06:36:00,
2013-06-13 01:41:00,78.1,69.9,29.92,SSE,151,3.0,3.0,76,0.00,,---,0.00,VWS V14.00,2013-06-13 06:41:00,
2013-06-13 01:46:00,77.9,70.1,29.91,SSE,151,0.0,0.0,77,0.00,,---,0.00,VWS V14.00,2013-06-13 06:46:00,
2013-06-13 01:51:00,77.7,69.9,29.92,SSE,151,0.0,0.0,77,0.00,,---,0.00,VWS V14.00,2013-06-13 06:51:00,
2013-06-13 01:56:00,77.6,69.8,29.92,SSE,151,0.0,0.0,77,0.00,,---,0.00,VWS V14.00,2013-06-13 06:56:00,
2013-06-13 02:01:00,77.2,69.4,29.92,SSE,151,0.0,0.0,77,0.00,,---,0.00,VWS V14.00,2013-06-13 07:01:00,
2013-06-13 02:06:00,77.0,69.6,29.92,SSE,151,0.0,0.0,78,0.00,,---,0.00,VWS V14.00,2013-06-13 07:06:00,
2013-06-13 02:11:00,76.8,69.8,29.92,SSE,151,0.0,0.0,79,0.00,,---,0.00,VWS V14.00,2013-06-13 07:11:00,
2013-06-13 02:16:00,76.7,69.7,29.92,SSE,151,0.0,0.0,79,0.00,,---,0.00,VWS V14.00,2013-06-13 07:16:00,
2013-06-13 02:21:00,76.5,69.5,29.92,SSE,151,0.0,0.0,79,0.00,,---,0.00,VWS V14.00,2013-06-13 07:21:00,
2013-06-13 02:26:00,76.3,69.3,29.92,SSE,150,0.0,0.0,79,0.00,,---,0.00,VWS V14.00,2013-06-13 07:26:00,
2013-06-13 02:31:00,76.0,69.0,29.92,SSE,151,0.0,0.0,79,0.00,,---,0.00,VWS V14.00,2013-06-13 07:31:00,
2013-06-13 02:36:00,75.4,68.8,29.92,SSE,151,0.0,0.0,80,0.00,,---,0.00,VWS V14.00,2013-06-13 07:36:00,
2013-06-13 02:41:00,75.1,68.5,29.92,SSE,151,0.0,0.0,80,0.00,,---,0.00,VWS V14.00,2013-06-13 07:41:00,
2013-06-13 02:46:00,74.9,68.7,29.92,SSE,150,0.0,0.0,81,0.00,,---,0.00,VWS V14.00,2013-06-13 07:46:00,
2013-06-13 02:51:00,74.7,68.8,29.92,SSE,151,0.0,0.0,82,0.00,,---,0.00,VWS V14.00,2013-06-13 07:51:00,
2013-06-13 02:56:00,74.6,68.8,29.92,SSE,151,0.0,0.0,82,0.00,,---,0.00,VWS V14.00,2013-06-13 07:56:00,
2013-06-13 03:01:00,74.4,68.9,29.92,SSE,151,0.0,0.0,83,0.00,,---,0.00,VWS V14.00,2013-06-13 08:01:00,
2013-06-13 03:06:00,74.2,68.7,29.92,SSE,151,0.0,0.0,83,0.00,,---,0.00,VWS V14.00,2013-06-13 08:06:00,
2013-06-13 03:11:00,74.0,68.9,29.92,SSE,151,0.0,0.0,84,0.00,,---,0.00,VWS V14.00,2013-06-13 08:11:00,
2013-06-13 03:16:00,73.9,68.8,29.92,SSE,151,0.0,0.0,84,0.00,,---,0.00,VWS V14.00,2013-06-13 08:16:00,
2013-06-13 03:21:00,73.7,68.6,29.92,SSE,151,0.0,0.0,84,0.00,,---,0.00,VWS V14.00,2013-06-13 08:21:00,
2013-06-13 03:26:00,73.5,68.7,29.92,SSE,151,0.0,0.0,85,0.00,,---,0.00,VWS V14.00,2013-06-13 08:26:00,
2013-06-13 03:31:00,73.5,68.7,29.92,SSE,150,0.0,0.0,85,0.00,,---,0.00,VWS V14.00,2013-06-13 08:31:00,
2013-06-13 03:36:00,73.3,68.5,29.92,SSE,151,0.0,0.0,85,0.00,,---,0.00,VWS V14.00,2013-06-13 08:36:00,
2013-06-13 03:41:00,73.2,68.4,29.92,SSE,150,0.0,0.0,85,0.00,,---,0.00,VWS V14.00,2013-06-13 08:41:00,
2013-06-13 03:46:00,73.2,68.8,29.92,SSE,150,0.0,0.0,86,0.00,,---,0.00,VWS V14.00,2013-06-13 08:46:00,
2013-06-13 03:51:00,73.2,68.8,29.92,SSE,151,0.0,0.0,86,0.00,,---,0.00,VWS V14.00,2013-06-13 08:51:00,
2013-06-13 03:56:00,73.0,68.6,29.92,SSE,151,0.0,0.0,86,0.00,,---,0.00,VWS V14.00,2013-06-13 08:56:00,
2013-06-13 04:01:00,73.0,68.6,29.92,SSE,151,0.0,0.0,86,0.00,,---,0.00,VWS V14.00,2013-06-13 09:01:00,
2013-06-13 04:06:00,72.8,68.7,29.92,SSE,151,0.0,0.0,87,0.00,,---,0.00,VWS V14.00,2013-06-13 09:06:00,
2013-06-13 04:11:00,72.7,68.6,29.92,SSE,151,0.0,0.0,87,0.00,,---,0.00,VWS V14.00,2013-06-13 09:11:00,
2013-06-13 04:16:00,72.5,68.4,29.92,SSE,150,0.0,0.0,87,0.00,,---,0.00,VWS V14.00,2013-06-13 09:16:00,
2013-06-13 04:21:00,72.5,68.8,29.92,SSE,151,0.0,0.0,88,0.00,,---,0.00,VWS V14.00,2013-06-13 09:21:00,
2013-06-13 04:26:00,72.7,68.9,29.93,SSE,151,0.0,0.0,88,0.00,,---,0.00,VWS V14.00,2013-06-13 09:26:00,
2013-06-13 04:31:00,72.7,68.9,29.93,SSE,151,0.0,0.0,88,0.00,,---,0.00,VWS V14.00,2013-06-13 09:31:00,
2013-06-13 04:36:00,72.5,68.8,29.93,SSE,150,0.0,0.0,88,0.00,,---,0.00,VWS V14.00,2013-06-13 09:36:00,
2013-06-13 04:41:00,72.5,68.8,29.93,SSE,150,0.0,0.0,88,0.00,,---,0.00,VWS V14.00,2013-06-13 09:41:00,
2013-06-13 04:46:00,72.3,68.6,29.93,SSE,151,0.0,0.0,88,0.00,,---,0.00,VWS V14.00,2013-06-13 09:46:00,
2013-06-13 04:51:00,72.3,68.6,29.94,SSE,151,0.0,0.0,88,0.00,,---,0.00,VWS V14.00,2013-06-13 09:51:00,
2013-06-13 04:56:00,72.3,68.6,29.94,SSE,151,0.0,0.0,88,0.00,,---,0.00,VWS V14.00,2013-06-13 09:56:00,
2013-06-13 05:01:00,72.3,68.6,29.94,SSE,151,0.0,0.0,88,0.00,,---,0.00,VWS V14.00,2013-06-13 10:01:00,
2013-06-13 05:06:00,72.1,68.3,29.94,SSE,151,0.0,0.0,88,0.00,,---,0.00,VWS V14.00,2013-06-13 10:06:00,
2013-06-13 05:11:00,72.3,68.9,29.94,SSE,151,0.0,0.0,89,0.00,,---,0.00,VWS V14.00,2013-06-13 10:11:00,
2013-06-13 05:16:00,72.3,68.9,29.94,SSE,151,0.0,0.0,89,0.00,,---,0.00,VWS V14.00,2013-06-13 10:16:00,
2013-06-13 05:21:00,72.3,68.9,29.95,SSE,151,0.0,0.0,89,0.00,,---,0.00,VWS V14.00,2013-06-13 10:21:00,
2013-06-13 05:26:00,72.3,68.9,29.95,SSE,151,0.0,0.0,89,0.00,,---,0.00,VWS V14.00,2013-06-13 10:26:00,
2013-06-13 05:31:00,72.3,68.9,29.96,SSE,151,0.0,0.0,89,0.00,,---,0.00,VWS V14.00,2013-06-13 10:31:00,
2013-06-13 05:36:00,72.3,68.9,29.96,SSE,151,0.0,0.0,89,0.00,,---,0.00,VWS V14.00,2013-06-13 10:36:00,
2013-06-13 05:41:00,72.3,68.9,29.96,SSE,151,0.0,0.0,89,0.00,,---,0.00,VWS V14.00,2013-06-13 10:41:00,
2013-06-13 05:46:00,72.3,68.9,29.96,SSE,151,0.0,0.0,89,0.00,,---,0.00,VWS V14.00,2013-06-13 10:46:00,
2013-06-13 05:51:00,72.3,68.9,29.96,SSE,151,0.0,0.0,89,0.00,,---,0.00,VWS V14.00,2013-06-13 10:51:00,
2013-06-13 05:56:00,72.3,68.9,29.96,SSE,151,0.0,0.0,89,0.00,,---,0.00,VWS V14.00,2013-06-13 10:56:00,
2013-06-13 06:01:00,72.3,68.9,29.96,SSE,151,0.0,0.0,89,0.00,,---,0.00,VWS V14.00,2013-06-13 11:01:00,
2013-06-13 06:06:00,72.3,68.9,29.96,SSE,151,0.0,0.0,89,0.00,,---,0.00,VWS V14.00,2013-06-13 11:06:00,
2013-06-13 06:11:00,72.3,68.9,29.96,SSE,151,0.0,0.0,89,0.00,,---,0.00,VWS V14.00,2013-06-13 11:11:00,
2013-06-13 06:16:00,72.3,68.9,29.96,SSE,151,0.0,0.0,89,0.00,,---,0.00,VWS V14.00,2013-06-13 11:16:00,
2013-06-13 06:21:00,72.3,68.9,29.97,SSE,151,0.0,0.0,89,0.00,,---,0.00,VWS V14.00,2013-06-13 11:21:00,
2013-06-13 06:26:00,72.3,68.9,29.97,SE,126,0.0,0.0,89,0.00,,---,0.00,VWS V14.00,2013-06-13 11:26:00,
2013-06-13 06:31:00,72.3,68.9,29.97,SE,140,0.0,0.0,89,0.00,,---,0.00,VWS V14.00,2013-06-13 11:31:00,
2013-06-13 06:36:00,72.5,69.1,29.97,SE,140,0.0,0.0,89,0.00,,---,0.00,VWS V14.00,2013-06-13 11:36:00,
2013-06-13 06:41:00,72.7,69.3,29.97,ESE,115,0.0,0.0,89,0.00,,---,0.00,VWS V14.00,2013-06-13 11:41:00,
2013-06-13 06:46:00,72.7,69.3,29.97,ESE,120,0.0,0.0,89,0.00,,---,0.00,VWS V14.00,2013-06-13 11:46:00,
2013-06-13 06:51:00,72.8,69.4,29.97,SE,142,0.0,0.0,89,0.00,,---,0.00,VWS V14.00,2013-06-13 11:51:00,
2013-06-13 06:56:00,73.2,69.8,29.97,SE,142,0.0,0.0,89,0.00,,---,0.00,VWS V14.00,2013-06-13 11:56:00,
2013-06-13 07:01:00,73.5,69.7,29.97,SE,142,0.0,0.0,88,0.00,,---,0.00,VWS V14.00,2013-06-13 12:01:00,
2013-06-13 07:06:00,73.9,70.1,29.97,SE,142,0.0,0.0,88,0.00,,---,0.00,VWS V14.00,2013-06-13 12:06:00,
2013-06-13 07:11:00,74.2,70.1,29.97,SE,142,0.0,0.0,87,0.00,,---,0.00,VWS V14.00,2013-06-13 12:11:00,
2013-06-13 07:16:00,74.7,70.6,29.97,SE,142,0.0,0.0,87,0.00,,---,0.00,VWS V14.00,2013-06-13 12:16:00,
2013-06-13 07:21:00,75.1,70.6,29.97,SE,142,0.0,0.0,86,0.00,,---,0.00,VWS V14.00,2013-06-13 12:21:00,
2013-06-13 07:26:00,75.4,70.9,29.97,SE,142,0.0,0.0,86,0.00,,---,0.00,VWS V14.00,2013-06-13 12:26:00,
2013-06-13 07:31:00,75.8,71.0,29.97,SE,130,0.0,0.0,85,0.00,,---,0.00,VWS V14.00,2013-06-13 12:31:00,
2013-06-13 07:36:00,75.8,71.0,29.97,SE,130,0.0,0.0,85,0.00,,---,0.00,VWS V14.00,2013-06-13 12:36:00,
2013-06-13 07:41:00,76.1,71.3,29.97,SE,130,0.0,0.0,85,0.00,,---,0.00,VWS V14.00,2013-06-13 12:41:00,
2013-06-13 07:46:00,76.5,71.3,29.97,ESE,111,0.0,0.0,84,0.00,,---,0.00,VWS V14.00,2013-06-13 12:46:00,
2013-06-13 07:51:00,77.0,71.8,29.97,East,91,0.0,0.0,84,0.00,,---,0.00,VWS V14.00,2013-06-13 12:51:00,
2013-06-13 07:56:00,77.4,71.5,29.97,North,355,0.0,1.0,82,0.00,,---,0.00,VWS V14.00,2013-06-13 12:56:00,
2013-06-13 08:01:00,77.6,71.7,29.97,North,355,0.0,0.0,82,0.00,,---,0.00,VWS V14.00,2013-06-13 13:01:00,
2013-06-13 08:06:00,77.7,71.4,29.97,North,355,0.0,0.0,81,0.00,,---,0.00,VWS V14.00,2013-06-13 13:06:00,
2013-06-13 08:11:00,77.9,71.6,29.97,ENE,59,0.0,1.0,81,0.00,,---,0.00,VWS V14.00,2013-06-13 13:11:00,
2013-06-13 08:16:00,78.1,71.4,29.98,North,9,3.0,5.0,80,0.00,,---,0.00,VWS V14.00,2013-06-13 13:16:00,
2013-06-13 08:21:00,78.3,71.6,29.98,NW,319,1.0,9.0,80,0.00,,---,0.00,VWS V14.00,2013-06-13 13:21:00,
2013-06-13 08:26:00,78.3,71.6,29.98,NW,319,8.0,9.0,80,0.00,,---,0.00,VWS V14.00,2013-06-13 13:26:00,
2013-06-13 08:31:00,78.3,71.6,29.98,North,5,0.0,0.0,80,0.00,,---,0.00,VWS V14.00,2013-06-13 13:31:00,
2013-06-13 08:36:00,78.1,71.4,29.98,NNW,329,5.0,12.0,80,0.00,,---,0.00,VWS V14.00,2013-06-13 13:36:00,
2013-06-13 08:41:00,77.9,71.2,29.98,NNW,330,5.0,6.0,80,0.00,,---,0.00,VWS V14.00,2013-06-13 13:41:00,
2013-06-13 08:46:00,77.6,71.3,29.98,North,350,5.0,7.0,81,0.00,,---,0.00,VWS V14.00,2013-06-13 13:46:00,
2013-06-13 08:51:00,77.4,71.1,29.98,North,349,4.0,4.0,81,0.00,,---,0.00,VWS V14.00,2013-06-13 13:51:00,
2013-06-13 08:56:00,77.4,71.1,29.99,NNW,338,6.0,9.0,81,0.00,,---,0.00,VWS V14.00,2013-06-13 13:56:00,
2013-06-13 09:01:00,77.4,71.1,29.99,NNW,331,6.0,7.0,81,0.00,,---,0.00,VWS V14.00,2013-06-13 14:01:00,
2013-06-13 09:06:00,77.4,71.1,29.99,NNW,327,4.0,7.0,81,0.00,,---,0.00,VWS V14.00,2013-06-13 14:06:00,
2013-06-13 09:11:00,77.4,71.5,29.99,NNW,327,4.0,4.0,82,0.00,,---,0.00,VWS V14.00,2013-06-13 14:11:00,
2013-06-13 09:15:00,77.4,71.1,29.99,NW,319,5.0,5.0,81,0.00,,---,0.00,VWS V14.00,2013-06-13 14:15:00,
2013-06-13 09:20:00,77.4,71.5,29.99,NW,320,7.0,7.0,82,0.00,,---,0.00,VWS V14.00,2013-06-13 14:20:00,
2013-06-13 09:25:00,77.4,71.1,29.99,North,360,5.0,8.0,81,0.00,,---,0.00,VWS V14.00,2013-06-13 14:25:00,
2013-06-13 09:30:00,77.4,71.1,29.99,North,360,0.0,0.0,81,0.00,,---,0.00,VWS V14.00,2013-06-13 14:30:00,
2013-06-13 09:35:00,77.7,71.0,29.99,North,360,0.0,0.0,80,0.00,,---,0.00,VWS V14.00,2013-06-13 14:35:00,
2013-06-13 09:40:00,77.9,71.2,29.99,North,360,4.0,4.0,80,0.00,,---,0.00,VWS V14.00,2013-06-13 14:40:00,
2013-06-13 09:45:00,78.3,71.3,29.99,North,5,2.0,2.0,79,0.00,,---,0.00,VWS V14.00,2013-06-13 14:45:00,
2013-06-13 09:50:00,78.6,71.6,29.99,North,355,0.0,0.0,79,0.00,,---,0.00,VWS V14.00,2013-06-13 14:50:00,
2013-06-13 09:55:00,78.8,71.4,29.99,North,355,2.0,3.0,78,0.00,,---,0.00,VWS V14.00,2013-06-13 14:55:00,
2013-06-13 10:00:00,79.2,71.8,29.99,North,355,1.0,2.0,78,0.00,,---,0.00,VWS V14.00,2013-06-13 15:00:00,
2013-06-13 10:05:00,79.4,71.6,29.99,North,355,0.0,0.0,77,0.00,,---,0.00,VWS V14.00,2013-06-13 15:05:00,
2013-06-13 10:10:00,79.9,71.7,29.99,North,355,4.0,4.0,76,0.00,,---,0.00,VWS V14.00,2013-06-13 15:10:00,
2013-06-13 10:15:00,79.9,71.3,29.99,North,355,2.0,2.0,75,0.00,,---,0.00,VWS V14.00,2013-06-13 15:15:00,
2013-06-13 10:20:00,79.9,71.3,29.99,North,5,0.0,0.0,75,0.00,,---,0.00,VWS V14.00,2013-06-13 15:20:00,
2013-06-13 10:25:00,80.1,71.1,29.99,NNE,15,3.0,6.0,74,0.00,,---,0.00,VWS V14.00,2013-06-13 15:25:00,
2013-06-13 10:30:00,80.3,71.3,29.99,NNE,16,0.0,0.0,74,0.00,,---,0.00,VWS V14.00,2013-06-13 15:30:00,
2013-06-13 10:35:00,80.5,71.1,29.99,North,5,0.0,2.0,73,0.00,,---,0.00,VWS V14.00,2013-06-13 15:35:00,
2013-06-13 10:40:00,80.9,71.4,29.99,North,5,4.0,4.0,73,0.00,,---,0.00,VWS V14.00,2013-06-13 15:40:00,
2013-06-13 10:45:00,81.1,71.6,29.99,NW,324,0.0,0.0,73,0.00,,---,0.00,VWS V14.00,2013-06-13 15:45:00,
2013-06-13 10:50:00,81.1,71.6,29.99,NW,324,6.0,6.0,73,0.00,,---,0.00,VWS V14.00,2013-06-13 15:50:00,
2013-06-13 10:55:00,81.2,71.3,29.99,NW,324,5.0,7.0,72,0.00,,---,0.00,VWS V14.00,2013-06-13 15:55:00,
2013-06-13 11:00:00,81.2,70.9,29.99,NW,325,0.0,0.0,71,0.00,,---,0.00,VWS V14.00,2013-06-13 16:00:00,
2013-06-13 11:05:00,82.0,71.3,29.99,NNW,329,0.0,0.0,70,0.00,,---,0.00,VWS V14.00,2013-06-13 16:05:00,
2013-06-13 11:10:00,82.6,71.8,29.99,NNW,329,0.0,0.0,70,0.00,,---,0.00,VWS V14.00,2013-06-13 16:10:00,
2013-06-13 11:15:00,82.6,71.8,29.99,NNW,329,4.0,5.0,70,0.00,,---,0.00,VWS V14.00,2013-06-13 16:15:00,
2013-06-13 11:20:00,82.4,71.6,29.99,NNW,329,3.0,5.0,70,0.00,,---,0.00,VWS V14.00,2013-06-13 16:20:00,
2013-06-13 11:25:00,82.2,71.4,29.99,NNW,327,2.0,3.0,70,0.00,,---,0.00,VWS V14.00,2013-06-13 16:25:00,
2013-06-13 11:30:00,82.4,71.6,29.99,NNW,327,3.0,3.0,70,0.00,,---,0.00,VWS V14.00,2013-06-13 16:30:00,
2013-06-13 11:35:00,82.6,71.8,29.99,NNW,327,3.0,4.0,70,0.00,,---,0.00,VWS V14.00,2013-06-13 16:35:00,
2013-06-13 11:40:00,82.8,71.6,29.99,NNW,327,1.0,1.0,69,0.00,,---,0.00,VWS V14.00,2013-06-13 16:40:00,
2013-06-13 11:45:00,83.0,71.8,29.98,NNW,328,6.0,6.0,69,0.00,,---,0.00,VWS V14.00,2013-06-13 16:45:00,
2013-06-13 11:50:00,83.0,71.4,29.99,NNW,327,7.0,8.0,68,0.00,,---,0.00,VWS V14.00,2013-06-13 16:50:00,
2013-06-13 11:55:00,83.2,72.0,29.99,NNW,327,9.0,10.0,69,0.00,,---,0.00,VWS V14.00,2013-06-13 16:55:00,
2013-06-13 12:00:00,83.4,71.3,29.99,NNW,327,2.0,3.0,67,0.00,,---,0.00,VWS V14.00,2013-06-13 17:00:00,
2013-06-13 12:05:00,83.4,70.9,29.99,NNW,328,6.0,6.0,66,0.00,,---,0.00,VWS V14.00,2013-06-13 17:05:00,
2013-06-13 12:10:00,83.8,71.2,29.98,NNW,329,6.0,11.0,66,0.00,,---,0.00,VWS V14.00,2013-06-13 17:10:00,
2013-06-13 12:15:00,83.8,70.8,29.98,NNW,329,8.0,8.0,65,0.00,,---,0.00,VWS V14.00,2013-06-13 17:15:00,
2013-06-13 12:20:00,84.0,71.0,29.98,NNW,328,4.0,5.0,65,0.00,,---,0.00,VWS V14.00,2013-06-13 17:20:00,
2013-06-13 12:25:00,84.3,70.8,29.98,NNW,327,10.0,10.0,64,0.00,,---,0.00,VWS V14.00,2013-06-13 17:25:00,
2013-06-13 12:30:00,84.3,70.3,29.98,NW,324,3.0,6.0,63,0.00,,---,0.00,VWS V14.00,2013-06-13 17:30:00,
2013-06-13 12:35:00,84.3,70.3,29.97,NNW,330,4.0,7.0,63,0.00,,---,0.00,VWS V14.00,2013-06-13 17:35:00,
2013-06-13 12:40:00,84.7,70.7,29.97,NNW,329,2.0,6.0,63,0.00,,---,0.00,VWS V14.00,2013-06-13 17:40:00,
2013-06-13 12:45:00,84.7,69.8,29.97,NW,324,2.0,5.0,61,0.00,,---,0.00,VWS V14.00,2013-06-13 17:45:00,
2013-06-13 12:50:00,84.9,70.9,29.97,NW,323,3.0,5.0,63,0.00,,---,0.00,VWS V14.00,2013-06-13 17:50:00,
2013-06-13 12:55:00,85.1,69.7,29.97,NW,317,3.0,4.0,60,0.00,,---,0.00,VWS V14.00,2013-06-13 17:55:00,
2013-06-13 13:00:00,85.3,70.3,29.97,NW,317,0.0,3.0,61,0.00,,---,0.00,VWS V14.00,2013-06-13 18:00:00,
2013-06-13 13:05:00,85.3,69.4,29.97,NW,317,3.0,3.0,59,0.00,,---,0.00,VWS V14.00,2013-06-13 18:05:00,
2013-06-13 13:10:00,85.5,70.0,29.97,NW,317,3.0,4.0,60,0.00,,---,0.00,VWS V14.00,2013-06-13 18:10:00,
2013-06-13 13:15:00,85.7,70.2,29.97,NW,317,5.0,6.0,60,0.00,,---,0.00,VWS V14.00,2013-06-13 18:15:00,
2013-06-13 13:20:00,86.1,71.1,29.97,NW,317,0.0,0.0,61,0.00,,---,0.00,VWS V14.00,2013-06-13 18:20:00,
2013-06-13 13:25:00,86.1,69.1,29.97,NW,321,7.0,7.0,57,0.00,,---,0.00,VWS V14.00,2013-06-13 18:25:00,
2013-06-13 13:30:00,85.9,68.9,29.97,NW,321,5.0,6.0,57,0.00,,---,0.00,VWS V14.00,2013-06-13 18:30:00,
2013-06-13 13:35:00,85.9,69.9,29.97,NW,321,5.0,8.0,59,0.00,,---,0.00,VWS V14.00,2013-06-13 18:35:00,
2013-06-13 13:40:00,86.1,70.1,29.97,NNW,332,0.0,0.0,59,0.00,,---,0.00,VWS V14.00,2013-06-13 18:40:00,
2013-06-13 13:45:00,86.3,69.8,29.97,NNW,332,3.0,4.0,58,0.00,,---,0.00,VWS V14.00,2013-06-13 18:45:00,
2013-06-13 13:50:00,86.5,69.5,29.97,NNW,332,3.0,4.0,57,0.00,,---,0.00,VWS V14.00,2013-06-13 18:50:00,
2013-06-13 13:55:00,86.3,69.3,29.97,NNW,332,1.0,2.0,57,0.00,,---,0.00,VWS V14.00,2013-06-13 18:55:00,
2013-06-13 14:00:00,86.3,69.8,29.97,NNW,332,10.0,10.0,58,0.00,,---,0.00,VWS V14.00,2013-06-13 19:00:00,
2013-06-13 14:05:00,86.3,68.8,29.97,NNW,333,4.0,4.0,56,0.00,,---,0.00,VWS V14.00,2013-06-13 19:05:00,
2013-06-13 14:10:00,86.3,68.8,29.96,NNW,333,5.0,5.0,56,0.00,,---,0.00,VWS V14.00,2013-06-13 19:10:00,
2013-06-13 14:15:00,86.5,69.5,29.96,NNW,332,0.0,0.0,57,0.00,,---,0.00,VWS V14.00,2013-06-13 19:15:00,
2013-06-13 14:20:00,87.0,69.4,29.96,NNW,332,2.0,3.0,56,0.00,,---,0.00,VWS V14.00,2013-06-13 19:20:00,
2013-06-13 14:25:00,87.4,69.8,29.96,NNW,332,7.0,7.0,56,0.00,,---,0.00,VWS V14.00,2013-06-13 19:25:00,
2013-06-13 14:30:00,87.4,69.3,29.96,NNW,332,1.0,2.0,55,0.00,,---,0.00,VWS V14.00,2013-06-13 19:30:00,
2013-06-13 14:35:00,87.4,70.3,29.95,NNW,332,4.0,5.0,57,0.00,,---,0.00,VWS V14.00,2013-06-13 19:35:00,
2013-06-13 14:40:00,87.4,70.3,29.95,NNW,332,5.0,7.0,57,0.00,,---,0.00,VWS V14.00,2013-06-13 19:40:00,
2013-06-13 14:45:00,87.2,69.1,29.95,NNW,329,6.0,6.0,55,0.00,,---,0.00,VWS V14.00,2013-06-13 19:45:00,
2013-06-13 14:50:00,87.0,68.9,29.95,NNW,330,7.0,10.0,55,0.00,,---,0.00,VWS V14.00,2013-06-13 19:50:00,
2013-06-13 14:55:00,86.7,69.1,29.95,NNW,329,7.0,8.0,56,0.00,,---,0.00,VWS V14.00,2013-06-13 19:55:00,
2013-06-13 15:00:00,87.0,68.9,29.95,NNW,329,5.0,9.0,55,0.00,,---,0.00,VWS V14.00,2013-06-13 20:00:00,
2013-06-13 15:05:00,87.0,68.9,29.95,NNW,329,5.0,5.0,55,0.00,,---,0.00,VWS V14.00,2013-06-13 20:05:00,
2013-06-13 15:10:00,87.0,68.4,29.94,NNW,329,6.0,7.0,54,0.00,,---,0.00,VWS V14.00,2013-06-13 20:10:00,
2013-06-13 15:15:00,87.0,68.9,29.94,NNW,329,3.0,6.0,55,0.00,,---,0.00,VWS V14.00,2013-06-13 20:15:00,
2013-06-13 15:20:00,87.0,67.8,29.94,NNW,331,0.0,5.0,53,0.00,,---,0.00,VWS V14.00,2013-06-13 20:20:00,
2013-06-13 15:25:00,86.7,68.1,29.94,NNW,331,6.0,6.0,54,0.00,,---,0.00,VWS V14.00,2013-06-13 20:25:00,
2013-06-13 15:30:00,87.0,67.3,29.94,NNW,332,5.0,6.0,52,0.00,,---,0.00,VWS V14.00,2013-06-13 20:30:00,
2013-06-13 15:35:00,87.0,67.8,29.94,NNW,332,4.0,4.0,53,0.00,,---,0.00,VWS V14.00,2013-06-13 20:35:00,
2013-06-13 15:40:00,87.0,67.3,29.94,NNW,332,0.0,0.0,52,0.00,,---,0.00,VWS V14.00,2013-06-13 20:40:00,
2013-06-13 15:45:00,87.2,66.9,29.94,NNW,332,3.0,3.0,51,0.00,,---,0.00,VWS V14.00,2013-06-13 20:45:00,
2013-06-13 15:50:00,87.2,67.4,29.94,NNW,333,5.0,6.0,52,0.00,,---,0.00,VWS V14.00,2013-06-13 20:50:00,
2013-06-13 15:55:00,87.2,66.3,29.94,NNW,333,5.0,5.0,50,0.00,,---,0.00,VWS V14.00,2013-06-13 20:55:00,
2013-06-13 16:00:00,87.4,65.3,29.94,NNW,333,4.0,4.0,48,0.00,,---,0.00,VWS V14.00,2013-06-13 21:00:00,
2013-06-13 16:05:00,87.4,65.3,29.94,NNW,333,6.0,7.0,48,0.00,,---,0.00,VWS V14.00,2013-06-13 21:05:00,
2013-06-13 16:10:00,87.4,64.1,29.93,NNW,333,6.0,6.0,46,0.00,,---,0.00,VWS V14.00,2013-06-13 21:10:00,
2013-06-13 16:15:00,87.4,64.7,29.93,NNW,333,2.0,6.0,47,0.00,,---,0.00,VWS V14.00,2013-06-13 21:15:00,
2013-06-13 16:20:00,87.4,65.3,29.93,NNW,335,6.0,6.0,48,0.00,,---,0.00,VWS V14.00,2013-06-13 21:20:00,
2013-06-13 16:25:00,87.6,64.9,29.93,NNW,331,6.0,7.0,47,0.00,,---,0.00,VWS V14.00,2013-06-13 21:25:00,
2013-06-13 16:30:00,87.6,65.5,29.93,NNW,332,5.0,6.0,48,0.00,,---,0.00,VWS V14.00,2013-06-13 21:30:00,
2013-06-13 16:35:00,87.6,64.3,29.93,NNW,333,10.0,10.0,46,0.00,,---,0.00,VWS V14.00,2013-06-13 21:35:00,
2013-06-13 16:40:00,87.4,64.7,29.93,NNW,334,3.0,5.0,47,0.00,,---,0.00,VWS V14.00,2013-06-13 21:40:00,
2013-06-13 16:45:00,87.4,65.3,29.93,NNW,333,0.0,1.0,48,0.00,,---,0.00,VWS V14.00,2013-06-13 21:45:00,
2013-06-13 16:50:00,87.6,64.3,29.93,NNW,348,5.0,6.0,46,0.00,,---,0.00,VWS V14.00,2013-06-13 21:50:00,
2013-06-13 16:55:00,87.6,65.5,29.92,NNW,348,4.0,4.0,48,0.00,,---,0.00,VWS V14.00,2013-06-13 21:55:00,
2013-06-13 17:00:00,87.6,63.7,29.92,NNW,347,3.0,3.0,45,0.00,,---,0.00,VWS V14.00,2013-06-13 22:00:00,
2013-06-13 17:05:00,87.6,65.5,29.92,NNW,347,6.0,6.0,48,0.00,,---,0.00,VWS V14.00,2013-06-13 22:05:00,
2013-06-13 17:10:00,87.4,65.3,29.92,NNW,347,4.0,5.0,48,0.00,,---,0.00,VWS V14.00,2013-06-13 22:10:00,
2013-06-13 17:15:00,87.4,66.5,29.92,NNW,336,5.0,5.0,50,0.00,,---,0.00,VWS V14.00,2013-06-13 22:15:00,
2013-06-13 17:20:00,87.2,65.1,29.92,NNW,336,4.0,4.0,48,0.00,,---,0.00,VWS V14.00,2013-06-13 22:20:00,
2013-06-13 17:25:00,87.2,65.1,29.92,NNW,336,1.0,4.0,48,0.00,,---,0.00,VWS V14.00,2013-06-13 22:25:00,
2013-06-13 17:30:00,87.2,65.7,29.92,NNW,335,6.0,6.0,49,0.00,,---,0.00,VWS V14.00,2013-06-13 22:30:00,
2013-06-13 17:35:00,87.2,65.7,29.92,NNW,335,2.0,3.0,49,0.00,,---,0.00,VWS V14.00,2013-06-13 22:35:00,
2013-06-13 17:40:00,87.2,65.1,29.92,NNW,335,5.0,5.0,48,0.00,,---,0.00,VWS V14.00,2013-06-13 22:40:00,
2013-06-13 17:45:00,87.0,65.0,29.92,NNW,336,2.0,3.0,48,0.00,,---,0.00,VWS V14.00,2013-06-13 22:45:00,
2013-06-13 17:50:00,87.0,65.0,29.92,North,360,7.0,7.0,48,0.00,,---,0.00,VWS V14.00,2013-06-13 22:50:00,
2013-06-13 17:55:00,87.0,65.0,29.92,North,5,3.0,3.0,48,0.00,,---,0.00,VWS V14.00,2013-06-13 22:55:00,
2013-06-13 18:00:00,86.7,62.8,29.92,North,360,5.0,6.0,45,0.00,,---,0.00,VWS V14.00,2013-06-13 23:00:00,
2013-06-13 18:05:00,86.7,63.5,29.92,NNE,29,4.0,4.0,46,0.00,,---,0.00,VWS V14.00,2013-06-13 23:05:00,
2013-06-13 18:10:00,86.7,62.8,29.92,NNE,29,3.0,7.0,45,0.00,,---,0.00,VWS V14.00,2013-06-13 23:10:00,
2013-06-13 18:15:00,86.7,63.5,29.92,North,5,5.0,6.0,46,0.00,,---,0.00,VWS V14.00,2013-06-13 23:15:00,
2013-06-13 18:20:00,86.7,64.7,29.92,North,5,4.0,4.0,48,0.00,,---,0.00,VWS V14.00,2013-06-13 23:20:00,
2013-06-13 18:25:00,86.5,64.5,29.92,North,5,4.0,4.0,48,0.00,,---,0.00,VWS V14.00,2013-06-13 23:25:00,
2013-06-13 18:30:00,86.3,64.9,29.92,North,5,2.0,5.0,49,0.00,,---,0.00,VWS V14.00,2013-06-13 23:30:00,
2013-06-13 18:35:00,86.3,65.5,29.92,North,5,3.0,3.0,50,0.00,,---,0.00,VWS V14.00,2013-06-13 23:35:00,
2013-06-13 18:40:00,86.1,65.3,29.92,NNE,27,4.0,6.0,50,0.00,,---,0.00,VWS V14.00,2013-06-13 23:40:00,
2013-06-13 18:45:00,85.9,65.7,29.92,NNE,27,2.0,7.0,51,0.00,,---,0.00,VWS V14.00,2013-06-13 23:45:00,
2013-06-13 18:50:00,85.7,65.5,29.92,NNE,27,3.0,4.0,51,0.00,,---,0.00,VWS V14.00,2013-06-13 23:50:00,
2013-06-13 18:55:00,85.7,65.5,29.93,NE,47,0.0,2.0,51,0.00,,---,0.00,VWS V14.00,2013-06-13 23:55:00,
2013-06-13 19:00:00,85.5,66.4,29.92,NE,47,2.0,2.0,53,0.00,,---,0.00,VWS V14.00,2013-06-14 00:00:00,
2013-06-13 19:05:00,85.5,67.0,29.92,NE,40,0.0,0.0,54,0.00,,---,0.00,VWS V14.00,2013-06-14 00:05:00,
2013-06-13 19:10:00,85.3,67.3,29.92,NE,40,0.0,0.0,55,0.00,,---,0.00,VWS V14.00,2013-06-14 00:10:00,
2013-06-13 19:15:00,85.3,67.8,29.92,NE,40,0.0,0.0,56,0.00,,---,0.00,VWS V14.00,2013-06-14 00:15:00,
2013-06-13 19:20:00,85.1,68.2,29.92,NE,40,0.0,0.0,57,0.00,,---,0.00,VWS V14.00,2013-06-14 00:20:00,
2013-06-13 19:25:00,84.9,67.5,29.92,NE,34,0.0,2.0,56,0.00,,---,0.00,VWS V14.00,2013-06-14 00:25:00,
2013-06-13 19:30:00,84.7,67.3,29.92,ENE,58,0.0,0.0,56,0.00,,---,0.00,VWS V14.00,2013-06-14 00:30:00,
2013-06-13 19:35:00,84.5,67.6,29.92,NE,42,0.0,0.0,57,0.00,,---,0.00,VWS V14.00,2013-06-14 00:35:00,
2013-06-13 19:40:00,84.3,67.4,29.93,NE,42,0.0,0.0,57,0.00,,---,0.00,VWS V14.00,2013-06-14 00:40:00,
2013-06-13 19:45:00,84.1,67.7,29.93,NE,42,0.0,0.0,58,0.00,,---,0.00,VWS V14.00,2013-06-14 00:45:00,
2013-06-13 19:50:00,84.0,68.6,29.92,NE,42,0.0,0.0,60,0.00,,---,0.00,VWS V14.00,2013-06-14 00:50:00,
2013-06-13 19:55:00,83.6,68.7,29.92,NE,42,0.0,0.0,61,0.00,,---,0.00,VWS V14.00,2013-06-14 00:55:00,
2013-06-13 20:00:00,83.2,67.9,29.93,NE,48,0.0,0.0,60,0.00,,---,0.00,VWS V14.00,2013-06-14 01:00:00,
2013-06-13 20:05:00,82.8,67.5,29.93,NNE,19,0.0,0.0,60,0.00,,---,0.00,VWS V14.00,2013-06-14 01:05:00,
2013-06-13 20:10:00,82.6,67.3,29.93,NNE,19,0.0,0.0,60,0.00,,---,0.00,VWS V14.00,2013-06-14 01:10:00,
2013-06-13 20:15:00,82.4,69.0,29.93,NNE,19,0.0,0.0,64,0.00,,---,0.00,VWS V14.00,2013-06-14 01:15:00,
2013-06-13 20:20:00,82.0,68.6,29.93,NNE,19,0.0,0.0,64,0.00,,---,0.00,VWS V14.00,2013-06-14 01:20:00,
2013-06-13 20:25:00,81.4,69.8,29.93,NNE,19,0.0,0.0,68,0.00,,---,0.00,VWS V14.00,2013-06-14 01:25:00,
2013-06-13 20:30:00,80.9,68.9,29.93,NNE,19,0.0,0.0,67,0.00,,---,0.00,VWS V14.00,2013-06-14 01:30:00,
2013-06-13 20:35:00,80.5,69.0,29.93,NE,48,0.0,0.0,68,0.00,,---,0.00,VWS V14.00,2013-06-14 01:35:00,
2013-06-13 20:40:00,80.1,68.6,29.93,NE,36,0.0,0.0,68,0.00,,---,0.00,VWS V14.00,2013-06-14 01:40:00,
2013-06-13 20:45:00,79.8,68.3,29.93,NE,36,0.0,0.0,68,0.00,,---,0.00,VWS V14.00,2013-06-14 01:45:00,
2013-06-13 20:50:00,79.6,67.7,29.93,NE,36,0.0,0.0,67,0.00,,---,0.00,VWS V14.00,2013-06-14 01:50:00,
2013-06-13 20:55:00,79.6,67.7,29.93,NE,36,0.0,0.0,67,0.00,,---,0.00,VWS V14.00,2013-06-14 01:55:00,
2013-06-13 21:00:00,79.6,68.5,29.93,NE,36,0.0,0.0,69,0.00,,---,0.00,VWS V14.00,2013-06-14 02:00:00,
2013-06-13 21:05:00,79.4,68.8,29.93,NE,36,0.0,0.0,70,0.00,,---,0.00,VWS V14.00,2013-06-14 02:05:00,
2013-06-13 21:10:00,79.2,68.6,29.94,NE,36,0.0,0.0,70,0.00,,---,0.00,VWS V14.00,2013-06-14 02:10:00,
2013-06-13 21:15:00,78.8,68.6,29.94,NE,36,0.0,0.0,71,0.00,,---,0.00,VWS V14.00,2013-06-14 02:15:00,
2013-06-13 21:20:00,78.6,67.6,29.94,NE,36,0.0,0.0,69,0.00,,---,0.00,VWS V14.00,2013-06-14 02:20:00,
2013-06-13 21:25:00,78.6,67.2,29.95,NE,34,0.0,0.0,68,0.00,,---,0.00,VWS V14.00,2013-06-14 02:25:00,
2013-06-13 21:30:00,78.6,67.2,29.94,NE,34,0.0,0.0,68,0.00,,---,0.00,VWS V14.00,2013-06-14 02:30:00,
2013-06-13 21:35:00,78.6,67.6,29.94,NNE,33,0.0,0.0,69,0.00,,---,0.00,VWS V14.00,2013-06-14 02:35:00,
2013-06-13 21:40:00,78.6,67.2,29.94,NNE,32,0.0,0.0,68,0.00,,---,0.00,VWS V14.00,2013-06-14 02:40:00,
2013-06-13 21:45:00,78.5,67.1,29.94,NNE,32,0.0,0.0,68,0.00,,---,0.00,VWS V14.00,2013-06-14 02:45:00,
2013-06-13 21:50:00,78.3,66.9,29.95,NNE,32,0.0,0.0,68,0.00,,---,0.00,VWS V14.00,2013-06-14 02:50:00,
2013-06-13 21:55:00,78.1,66.7,29.95,NNE,32,0.0,0.0,68,0.00,,---,0.00,VWS V14.00,2013-06-14 02:55:00,
2013-06-13 22:00:00,77.9,66.9,29.94,NNE,32,0.0,0.0,69,0.00,,---,0.00,VWS V14.00,2013-06-14 03:00:00,
2013-06-13 22:05:00,77.6,66.6,29.94,NNE,32,0.0,0.0,69,0.00,,---,0.00,VWS V14.00,2013-06-14 03:05:00,
2013-06-13 22:10:00,77.2,66.7,29.94,NNE,32,0.0,0.0,70,0.00,,---,0.00,VWS V14.00,2013-06-14 03:10:00,
2013-06-13 22:15:00,77.0,67.3,29.95,NNE,32,0.0,0.0,72,0.00,,---,0.00,VWS V14.00,2013-06-14 03:15:00,
2013-06-13 22:20:00,76.8,66.7,29.96,NNE,32,0.0,0.0,71,0.00,,---,0.00,VWS V14.00,2013-06-14 03:20:00,
2013-06-13 22:25:00,76.7,67.0,29.96,NNE,32,0.0,0.0,72,0.00,,---,0.00,VWS V14.00,2013-06-14 03:25:00,
2013-06-13 22:30:00,76.5,66.8,29.96,NNE,32,0.0,0.0,72,0.00,,---,0.00,VWS V14.00,2013-06-14 03:30:00,
2013-06-13 22:35:00,76.3,67.0,29.96,NNE,32,0.0,0.0,73,0.00,,---,0.00,VWS V14.00,2013-06-14 03:35:00,
2013-06-13 22:40:00,76.1,66.8,29.96,NNE,32,0.0,0.0,73,0.00,,---,0.00,VWS V14.00,2013-06-14 03:40:00,
2013-06-13 22:45:00,75.8,66.5,29.96,NNE,32,0.0,0.0,73,0.00,,---,0.00,VWS V14.00,2013-06-14 03:45:00,
2013-06-13 22:50:00,75.4,66.2,29.96,NNE,32,0.0,0.0,73,0.00,,---,0.00,VWS V14.00,2013-06-14 03:50:00,
2013-06-13 22:55:00,75.4,66.2,29.96,NNE,32,0.0,0.0,73,0.00,,---,0.00,VWS V14.00,2013-06-14 03:55:00,
2013-06-13 23:00:00,75.3,66.4,29.96,NNE,32,0.0,0.0,74,0.00,,---,0.00,VWS V14.00,2013-06-14 04:00:00,
2013-06-13 23:01:00,75.3,66.4,29.96,NNE,32,0.0,0.0,74,0.00,,---,0.00,VWS V14.00,2013-06-14 04:01:00,
2013-06-13 23:06:00,75.1,67.0,29.96,NNE,32,0.0,0.0,76,0.00,,---,0.00,VWS V14.00,2013-06-14 04:06:00,
2013-06-13 23:11:00,75.1,66.6,29.96,NNE,32,0.0,0.0,75,0.00,,---,0.00,VWS V14.00,2013-06-14 04:11:00,
2013-06-13 23:16:00,74.9,67.2,29.96,NNE,32,0.0,0.0,77,0.00,,---,0.00,VWS V14.00,2013-06-14 04:16:00,
2013-06-13 23:21:00,74.9,66.8,29.96,NNE,32,0.0,0.0,76,0.00,,---,0.00,VWS V14.00,2013-06-14 04:21:00,
2013-06-13 23:26:00,74.7,67.4,29.97,NNE,32,0.0,0.0,78,0.00,,---,0.00,VWS V14.00,2013-06-14 04:26:00,
2013-06-13 23:31:00,74.2,66.9,29.97,NNE,32,0.0,0.0,78,0.00,,---,0.00,VWS V14.00,2013-06-14 04:31:00,
2013-06-13 23:36:00,73.7,66.8,29.96,NNE,32,0.0,0.0,79,0.00,,---,0.00,VWS V14.00,2013-06-14 04:36:00,
2013-06-13 23:41:00,73.3,66.4,29.97,NNE,32,0.0,0.0,79,0.00,,---,0.00,VWS V14.00,2013-06-14 04:41:00,
2013-06-13 23:46:00,73.0,66.1,29.97,NNE,32,0.0,0.0,79,0.00,,---,0.00,VWS V14.00,2013-06-14 04:46:00,
2013-06-13 23:51:00,72.8,66.3,29.97,NNE,32,0.0,0.0,80,0.00,,---,0.00,VWS V14.00,2013-06-14 04:51:00,
2013-06-13 23:56:00,72.8,66.6,29.97,NNE,32,0.0,0.0,81,0.00,,---,0.00,VWS V14.00,2013-06-14 04:56:00,